Weather History for KLBL - July, 2013

Change the Weather History Date:

Friday, July 26, 2013

  Actual Average Record
Temperature  
Mean Temperature 76 °F -  
Max Temperature 86 °F 94 °F 109 °F (1940)
Min Temperature 66 °F 66 °F 60 °F (1942)
Cooling Degree Days 11    
Growing Degree Days 26 (Base 50)    
Moisture  
Dew Point 60 °F    
Average Humidity 63    
Maximum Humidity 88    
Minimum Humidity 35    
Precipitation  
Precipitation 0.00 in - - ()
Sea Level Pressure  
Sea Level Pressure 30.16 in    
Wind  
Wind Speed 14 mph (NNE)    
Max Wind Speed 21 mph    
Max Gust Speed 26 mph    
Visibility 10 miles    
Events      
Averages and records for this station are not official NWS values.
T = Trace of Precipitation, MM = Missing Value Source: NWS Daily Summary

Daily Weather History Graph

Daily Weather History Graph

Search for Another Location

Airport or City:

Trip Planner

Search our weather history database for the weather conditions in past years. The results will help you decide how hot, cold, wet, or windy it might be!

Date:

Astronomy

Jul. 26, 2013 Rise Set
Actual Time 6:44 AM CDT 8:55 PM CDT
Civil Twilight 6:15 AM CDT 9:25 PM CDT
Nautical Twilight 5:39 AM CDT 10:00 PM CDT
Astronomical Twilight 5:00 AM CDT 10:39 PM CDT
Moon 11:19 PM CDT (7/26) 11:14 AM CDT (7/26)
Length of Visible Light 15h 09m
Length of Day
14h 11m
Waning Gibbous, 80% of the Moon is Illuminated
Jul 26
Waning Gibbous
Jul 29
Last Quarter
Aug 6
New
Aug 14
First Quarter
Aug 20
Full

Hourly Weather History & Observations

Time (CDT) Temp. Heat Index Dew Point Humidity Pressure Visibility Wind Dir Wind Speed Gust Speed Precip Events Conditions
12:15 AM 71.6 °F - 64.4 °F 78% 30.05 in 10.0 mi WNW 13.8 mph - N/A   Clear
12:35 AM 69.8 °F - 64.4 °F 83% 30.06 in 10.0 mi NW 12.7 mph - N/A   Scattered Clouds
12:55 AM 69.8 °F - 64.4 °F 83% 30.05 in 10.0 mi NNW 13.8 mph - N/A   Mostly Cloudy
1:15 AM 69.8 °F - 64.4 °F 83% 30.06 in 5.0 mi NNE 15.0 mph - N/A   Scattered Clouds
1:35 AM 69.8 °F - 64.4 °F 83% 30.07 in 4.0 mi North 18.4 mph - N/A   Overcast
1:55 AM 68.0 °F - 62.6 °F 83% 30.08 in 7.0 mi North 13.8 mph - N/A   Mostly Cloudy
2:15 AM 68.0 °F - 62.6 °F 83% 30.09 in 10.0 mi North 15.0 mph - N/A   Scattered Clouds
2:35 AM 68.0 °F - 64.4 °F 88% 30.09 in 7.0 mi North 17.3 mph - N/A   Mostly Cloudy
2:55 AM 68.0 °F - 62.6 °F 83% 30.09 in 10.0 mi North 18.4 mph - N/A   Overcast
3:15 AM 68.0 °F - 62.6 °F 83% 30.09 in 10.0 mi North 18.4 mph - N/A   Overcast
3:35 AM 68.0 °F - 62.6 °F 83% 30.09 in 10.0 mi North 20.7 mph 26.5 mph N/A   Overcast
3:55 AM 68.0 °F - 62.6 °F 83% 30.10 in 10.0 mi North 17.3 mph 20.7 mph N/A   Overcast
4:15 AM 68.0 °F - 62.6 °F 83% 30.10 in 10.0 mi North 13.8 mph - N/A   Overcast
4:35 AM 66.2 °F - 62.6 °F 88% 30.12 in 10.0 mi North 10.4 mph - N/A   Overcast
4:55 AM 66.2 °F - 62.6 °F 88% 30.12 in 10.0 mi North 13.8 mph - N/A   Overcast
5:15 AM 68.0 °F - 62.6 °F 83% 30.12 in 10.0 mi North 13.8 mph - N/A   Overcast
5:35 AM 66.2 °F - 62.6 °F 88% 30.13 in 10.0 mi North 11.5 mph - N/A   Overcast
5:55 AM 66.2 °F - 60.8 °F 83% 30.13 in 10.0 mi North 15.0 mph - N/A   Scattered Clouds
6:15 AM 66.2 °F - 60.8 °F 83% 30.14 in 10.0 mi North 11.5 mph - N/A   Scattered Clouds
6:35 AM 66.2 °F - 62.6 °F 88% 30.14 in 10.0 mi North 10.4 mph - N/A   Overcast
6:55 AM 66.2 °F - 62.6 °F 88% 30.15 in 9.0 mi North 13.8 mph - N/A   Overcast
7:15 AM 66.2 °F - 62.6 °F 88% 30.15 in 10.0 mi North 12.7 mph - N/A   Overcast
7:35 AM 66.2 °F - 60.8 °F 83% 30.16 in 10.0 mi NNW 13.8 mph - N/A   Overcast
7:55 AM 66.2 °F - 60.8 °F 83% 30.17 in 10.0 mi North 13.8 mph - N/A   Overcast
8:15 AM 66.2 °F - 62.6 °F 88% 30.17 in 10.0 mi North 16.1 mph - N/A   Overcast
8:35 AM 66.2 °F - 60.8 °F 83% 30.18 in 10.0 mi North 15.0 mph 19.6 mph N/A   Overcast
8:55 AM 68.0 °F - 60.8 °F 78% 30.19 in 10.0 mi NNE 15.0 mph - N/A   Overcast
9:15 AM 68.0 °F - 60.8 °F 78% 30.20 in 10.0 mi NNE 13.8 mph - N/A   Overcast
9:35 AM 69.8 °F - 62.6 °F 78% 30.20 in 10.0 mi NNE 15.0 mph - N/A   Overcast
9:55 AM 69.8 °F - 62.6 °F 78% 30.20 in 10.0 mi NNE 15.0 mph - N/A   Overcast
10:15 AM 71.6 °F - 62.6 °F 73% 30.20 in 10.0 mi NNE 13.8 mph 19.6 mph N/A   Overcast
10:35 AM 71.6 °F - 62.6 °F 73% 30.20 in 10.0 mi NNE 15.0 mph - N/A   Overcast
10:55 AM 73.4 °F - 64.4 °F 73% 30.21 in 10.0 mi North 15.0 mph - N/A   Mostly Cloudy
11:15 AM 73.4 °F - 64.4 °F 73% 30.21 in 10.0 mi NNE 13.8 mph - N/A   Mostly Cloudy
11:35 AM 75.2 °F - 64.4 °F 69% 30.21 in 10.0 mi NE 17.3 mph - N/A   Mostly Cloudy
11:55 AM 77.0 °F - 64.4 °F 65% 30.22 in 10.0 mi NNE 16.1 mph - N/A   Scattered Clouds
12:15 PM 78.8 °F - 64.4 °F 61% 30.22 in 10.0 mi NE 16.1 mph 19.6 mph N/A   Mostly Cloudy
12:35 PM 78.8 °F - 64.4 °F 61% 30.22 in 10.0 mi NNE 12.7 mph 20.7 mph N/A   Partly Cloudy
12:55 PM 78.8 °F - 62.6 °F 57% 30.22 in 10.0 mi NE 16.1 mph 19.6 mph N/A   Partly Cloudy
1:15 PM 80.6 °F 81.8 °F 62.6 °F 54% 30.21 in 10.0 mi NNE 18.4 mph 25.3 mph N/A   Partly Cloudy
1:35 PM 80.6 °F 81.5 °F 60.8 °F 51% 30.22 in 10.0 mi NE 17.3 mph 23.0 mph N/A   Clear
1:55 PM 80.6 °F 81.5 °F 60.8 °F 51% 30.21 in 10.0 mi NE 16.1 mph 21.9 mph N/A   Clear
2:15 PM 82.4 °F 82.5 °F 59.0 °F 45% 30.21 in 10.0 mi NE 12.7 mph - N/A   Clear
2:35 PM 82.4 °F 82.5 °F 59.0 °F 45% 30.20 in 10.0 mi North 15.0 mph 23.0 mph N/A   Clear
2:55 PM 84.2 °F 83.8 °F 59.0 °F 42% 30.19 in 10.0 mi NE 16.1 mph 21.9 mph N/A   Clear
3:15 PM 84.2 °F 83.8 °F 59.0 °F 42% 30.19 in 10.0 mi NNE 15.0 mph 20.7 mph N/A   Clear
3:35 PM 84.2 °F 83.5 °F 57.2 °F 40% 30.18 in 10.0 mi NE 11.5 mph 21.9 mph N/A   Clear
3:55 PM 84.2 °F 83.5 °F 57.2 °F 40% 30.18 in 10.0 mi NE 17.3 mph 23.0 mph N/A   Clear
4:15 PM 84.2 °F 83.5 °F 57.2 °F 40% 30.18 in 10.0 mi NE 11.5 mph 17.3 mph N/A   Clear
4:35 PM 86.0 °F 84.9 °F 57.2 °F 37% 30.17 in 10.0 mi NE 12.7 mph 20.7 mph N/A   Clear
4:55 PM 86.0 °F 84.5 °F 55.4 °F 35% 30.17 in 10.0 mi ENE 15.0 mph 18.4 mph N/A   Clear
5:15 PM 86.0 °F 84.5 °F 55.4 °F 35% 30.16 in 10.0 mi NE 18.4 mph 23.0 mph N/A   Clear
5:35 PM 86.0 °F 84.5 °F 55.4 °F 35% 30.16 in 10.0 mi NE 15.0 mph 20.7 mph N/A   Clear
5:55 PM 84.2 °F 83.0 °F 55.4 °F 37% 30.16 in 10.0 mi NE 16.1 mph - N/A   Clear
6:15 PM 84.2 °F 83.0 °F 55.4 °F 37% 30.16 in 10.0 mi ENE 10.4 mph 21.9 mph N/A   Clear
6:35 PM 84.2 °F 82.8 °F 53.6 °F 35% 30.16 in 10.0 mi NE 13.8 mph - N/A   Clear
6:55 PM 84.2 °F 82.8 °F 53.6 °F 35% 30.16 in 10.0 mi East 9.2 mph - N/A   Clear
7:15 PM 84.2 °F 82.8 °F 53.6 °F 35% 30.16 in 10.0 mi ENE 12.7 mph - N/A   Clear
7:35 PM 82.4 °F 81.4 °F 53.6 °F 37% 30.16 in 10.0 mi ENE 8.1 mph - N/A   Clear
7:55 PM 82.4 °F 81.4 °F 53.6 °F 37% 30.17 in 10.0 mi ENE 10.4 mph - N/A   Clear
8:15 PM 82.4 °F 81.4 °F 53.6 °F 37% 30.16 in 10.0 mi East 11.5 mph - N/A   Clear
8:35 PM 80.6 °F 80.3 °F 53.6 °F 39% 30.17 in 10.0 mi ENE 9.2 mph - N/A   Clear
8:55 PM 80.6 °F 80.3 °F 53.6 °F 39% 30.17 in 10.0 mi ENE 6.9 mph - N/A   Clear
9:15 PM 78.8 °F - 53.6 °F 42% 30.18 in 10.0 mi ENE 6.9 mph - N/A   Clear
9:35 PM 78.8 °F - 53.6 °F 42% 30.18 in 10.0 mi East 6.9 mph - N/A   Clear
9:55 PM 77.0 °F - 55.4 °F 47% 30.19 in 10.0 mi East 8.1 mph - N/A   Clear
10:15 PM 75.2 °F - 55.4 °F 50% 30.20 in 10.0 mi ESE 8.1 mph - N/A   Clear
10:35 PM 73.4 °F - 55.4 °F 53% 30.21 in 10.0 mi ESE 8.1 mph - N/A   Clear
10:55 PM 71.6 °F - 55.4 °F 57% 30.22 in 10.0 mi SE 5.8 mph - N/A   Clear
11:15 PM 71.6 °F - 55.4 °F 57% 30.22 in 10.0 mi ESE 6.9 mph - N/A   Clear
11:35 PM 71.6 °F - 55.4 °F 57% 30.22 in 10.0 mi SE 8.1 mph - N/A   Clear
11:55 PM 69.8 °F - 55.4 °F 60% 30.22 in 10.0 mi SE 6.9 mph - N/A   Clear